TimeEST,TemperatureF,Dew PointF,Humidity,Sea Level PressureIn,VisibilityMPH,Wind Direction,Wind SpeedMPH,Gust SpeedMPH,PrecipitationIn,Events,Conditions,WindDirDegrees,DateUTC
12:55 AM,44.4,35.4,71,30.18,10.0,SSE,9.2,-,N/A,,Overcast,150,2012-11-20 05:55:00
1:55 AM,44.6,34.5,68,30.17,10.0,Calm,Calm,-,N/A,,Overcast,0,2012-11-20 06:55:00
2:55 AM,45.3,33.3,63,30.17,10.0,ESE,3.5,-,N/A,,Overcast,120,2012-11-20 07:55:00
3:55 AM,41.7,34.5,76,30.17,10.0,Calm,Calm,-,N/A,,Mostly Cloudy,0,2012-11-20 08:55:00
4:55 AM,39.2,33.8,81,30.17,10.0,Calm,Calm,-,N/A,,Overcast,0,2012-11-20 09:55:00
5:55 AM,41.2,35.1,79,30.17,10.0,Calm,Calm,-,N/A,,Overcast,0,2012-11-20 10:55:00
6:55 AM,41.4,34.5,77,30.17,10.0,Calm,Calm,-,N/A,,Overcast,0,2012-11-20 11:55:00
7:55 AM,41.5,35.2,78,30.17,10.0,Calm,Calm,-,N/A,,Overcast,0,2012-11-20 12:55:00
8:55 AM,42.8,36.3,78,30.17,10.0,Calm,Calm,-,N/A,,Overcast,0,2012-11-20 13:55:00
9:55 AM,46.9,35.8,65,30.17,10.0,South,4.6,-,N/A,,Overcast,180,2012-11-20 14:55:00
10:55 AM,49.8,37.2,62,30.16,10.0,South,3.5,-,N/A,,Overcast,180,2012-11-20 15:55:00
11:55 AM,51.6,36.9,57,30.15,10.0,Calm,Calm,-,N/A,,Overcast,0,2012-11-20 16:55:00
12:55 PM,54.1,37.9,54,30.12,10.0,Calm,Calm,-,N/A,,Overcast,0,2012-11-20 17:55:00
1:55 PM,56.7,37.6,49,30.11,10.0,Calm,Calm,-,N/A,,Mostly Cloudy,0,2012-11-20 18:55:00
2:55 PM,57.4,36.0,45,30.09,10.0,North,4.6,-,N/A,,Overcast,360,2012-11-20 19:55:00
3:55 PM,57.9,36.7,45,30.08,10.0,North,4.6,-,N/A,,Mostly Cloudy,350,2012-11-20 20:55:00
4:55 PM,56.1,36.3,47,30.09,10.0,Calm,Calm,-,N/A,,Overcast,0,2012-11-20 21:55:00
5:55 PM,53.6,35.6,51,30.10,10.0,Calm,Calm,-,N/A,,Overcast,0,2012-11-20 22:55:00
6:55 PM,52.3,37.0,56,30.12,10.0,Calm,Calm,-,N/A,,Overcast,0,2012-11-20 23:55:00
7:55 PM,51.1,39.0,63,30.14,10.0,North,5.8,-,0.00,,Light Drizzle,10,2012-11-21 00:55:00
8:55 PM,51.1,39.4,64,30.14,10.0,Calm,Calm,-,0.00,,Overcast,0,2012-11-21 01:55:00
9:55 PM,50.5,39.6,66,30.14,10.0,Calm,Calm,-,N/A,,Overcast,0,2012-11-21 02:55:00
10:55 PM,50.0,38.8,66,30.15,10.0,NE,3.5,-,N/A,,Overcast,40,2012-11-21 03:55:00
11:55 PM,49.1,38.3,66,30.15,10.0,Calm,Calm,-,N/A,,Overcast,0,2012-11-21 04:55:00